Weather History for Auburn, CA

Change the Weather History Date:

Tuesday, February 28, 2012

  Actual Average Record
Temperature  
Mean Temperature 42 °F -  
Max Temperature 50 °F 62 °F 75 °F (1968)
Min Temperature 35 °F 42 °F 22 °F (1962)
Degree Days  
Heating Degree Days 22    
Moisture  
Dew Point 33 °F    
Average Humidity 71    
Maximum Humidity 87    
Minimum Humidity 54    
Precipitation  
Precipitation 0.00 in - - ()
Sea Level Pressure  
Sea Level Pressure 30.10 in    
Wind  
Wind Speed 9 mph (SSE)    
Max Wind Speed 16 mph    
Max Gust Speed 22 mph    
Visibility 10 miles    
Events      
Averages and records for this station are not official NWS values.
T = Trace of Precipitation, MM = Missing Value Source: NWS Daily Summary

Daily Weather History Graph

Daily Weather History Graph

Search for Another Location

Airport:

Trip Planner

Search our weather history database for the weather conditions in past years. The results will help you decide how hot, cold, wet, or windy it might be!

Date:

Astronomy

Feb. 28, 2012 Rise Set
Actual Time 6:38 AM PST 5:55 PM PST
Civil Twilight 6:12 AM PST 6:22 PM PST
Nautical Twilight 5:41 AM PST 6:53 PM PST
Astronomical Twilight 5:10 AM PST 7:24 PM PST
Moon 9:53 AM PST (2/28) No Moon Set
Length of Visible Light 12h 10m
Length of Day
11h 16m
Waxing Crescent, 39% of the Moon is Illuminated
Feb 28
Waxing Crescent
Feb 29
First Quarter
Mar 8
Full
Mar 14
Last Quarter
Mar 22
New

Hourly Weather History & Observations

Time (PST) Temp. Windchill Dew Point Humidity Pressure Visibility Wind Dir Wind Speed Gust Speed Precip Events Conditions
12:15 AM 37.4 °F 32.8 °F 33.8 °F 87% 29.92 in 10.0 mi East 5.8 mph - N/A   Clear
12:35 AM 37.4 °F 33.8 °F 33.8 °F 87% 29.93 in 10.0 mi ESE 4.6 mph - N/A   Clear
12:55 AM 37.4 °F 32.8 °F 33.8 °F 87% 29.94 in 10.0 mi ESE 5.8 mph - N/A   Clear
1:15 AM 37.4 °F 32.8 °F 33.8 °F 87% 29.94 in 10.0 mi ESE 5.8 mph - N/A   Clear
1:55 AM 35.6 °F 29.9 °F 32.0 °F 87% 29.95 in 10.0 mi East 6.9 mph - N/A   Clear
2:15 AM 35.6 °F 29.2 °F 32.0 °F 87% 29.95 in 10.0 mi East 8.1 mph - N/A   Clear
2:35 AM 35.6 °F 28.6 °F 32.0 °F 87% 29.96 in 10.0 mi East 9.2 mph - N/A   Clear
2:55 AM 35.6 °F 29.2 °F 32.0 °F 87% 29.96 in 10.0 mi East 8.1 mph - N/A   Clear
3:15 AM 35.6 °F 28.6 °F 32.0 °F 87% 29.97 in 10.0 mi ESE 9.2 mph - N/A   Clear
3:35 AM 37.4 °F 30.3 °F 32.0 °F 81% 29.97 in 10.0 mi ESE 10.4 mph - N/A   Clear
3:55 AM 37.4 °F 30.8 °F 32.0 °F 81% 29.98 in 10.0 mi ESE 9.2 mph - N/A   Clear
4:15 AM 35.6 °F 28.0 °F 32.0 °F 87% 29.99 in 10.0 mi East 10.4 mph - N/A   Clear
4:35 AM 37.4 °F 31.4 °F 32.0 °F 81% 30.00 in 10.0 mi SE 8.1 mph - N/A   Clear
4:55 AM 37.4 °F 30.8 °F 32.0 °F 81% 30.01 in 10.0 mi ESE 9.2 mph - N/A   Partly Cloudy
5:15 AM 37.4 °F 31.4 °F 32.0 °F 81% 30.02 in 10.0 mi ESE 8.1 mph - N/A   Clear
5:35 AM 37.4 °F 33.8 °F 32.0 °F 81% 30.03 in 10.0 mi SE 4.6 mph - N/A   Clear
5:55 AM 37.4 °F 32.8 °F 32.0 °F 81% 30.04 in 10.0 mi SE 5.8 mph - N/A   Clear
6:15 AM 37.4 °F 32.1 °F 32.0 °F 81% 30.05 in 10.0 mi SE 6.9 mph - N/A   Scattered Clouds
6:35 AM 37.4 °F 30.8 °F 32.0 °F 81% 30.06 in 10.0 mi SE 9.2 mph - N/A   Mostly Cloudy
6:55 AM 37.4 °F 31.4 °F 32.0 °F 81% 30.07 in 10.0 mi SSE 8.1 mph - N/A   Partly Cloudy
7:15 AM 37.4 °F 32.1 °F 32.0 °F 81% 30.09 in 10.0 mi South 6.9 mph - N/A   Mostly Cloudy
7:35 AM 37.4 °F 32.1 °F 32.0 °F 81% 30.10 in 10.0 mi SSE 6.9 mph - N/A   Overcast
7:55 AM 37.4 °F 30.8 °F 32.0 °F 81% 30.11 in 10.0 mi SE 9.2 mph - N/A   Mostly Cloudy
8:15 AM 39.2 °F 32.5 °F 33.8 °F 81% 30.12 in 10.0 mi SE 10.4 mph - N/A   Mostly Cloudy
8:35 AM 39.2 °F 32.5 °F 33.8 °F 81% 30.14 in 10.0 mi SSE 10.4 mph - N/A   Scattered Clouds
8:55 AM 39.2 °F 32.5 °F 33.8 °F 81% 30.14 in 10.0 mi SSE 10.4 mph - N/A   Mostly Cloudy
9:15 AM 41.0 °F 34.3 °F 33.8 °F 76% 30.15 in 10.0 mi South 11.5 mph 16.1 mph N/A   Mostly Cloudy
9:35 AM 42.8 °F 37.0 °F 35.6 °F 76% 30.16 in 10.0 mi SSE 10.4 mph - N/A   Mostly Cloudy
9:55 AM 44.6 °F 38.4 °F 35.6 °F 71% 30.16 in 10.0 mi South 12.7 mph 19.6 mph N/A   Mostly Cloudy
10:15 AM 42.8 °F 35.8 °F 35.6 °F 76% 30.17 in 10.0 mi SSE 13.8 mph 18.4 mph N/A   Mostly Cloudy
10:35 AM 44.6 °F 38.8 °F 35.6 °F 71% 30.17 in 10.0 mi South 11.5 mph 17.3 mph N/A   Mostly Cloudy
10:55 AM 44.6 °F 39.7 °F 35.6 °F 71% 30.17 in 10.0 mi South 9.2 mph 16.1 mph N/A   Mostly Cloudy
11:15 AM 46.4 °F 41.9 °F 33.8 °F 62% 30.18 in 10.0 mi South 9.2 mph - N/A   Scattered Clouds
11:35 AM 46.4 °F 41.1 °F 33.8 °F 62% 30.18 in 10.0 mi South 11.5 mph 18.4 mph N/A   Scattered Clouds
11:55 AM 48.2 °F - 33.8 °F 58% 30.18 in 10.0 mi South 10.4 mph 16.1 mph N/A   Mostly Cloudy
12:15 PM 48.2 °F - 33.8 °F 58% 30.18 in 10.0 mi South 12.7 mph 18.4 mph N/A   Mostly Cloudy
12:35 PM 48.2 °F - 33.8 °F 58% 30.17 in 10.0 mi SSW 12.7 mph 18.4 mph N/A   Scattered Clouds
12:55 PM 48.2 °F - 35.6 °F 62% 30.17 in 10.0 mi SSW 16.1 mph 21.9 mph N/A   Scattered Clouds
1:15 PM 50.0 °F - 35.6 °F 58% 30.16 in 10.0 mi SSW 15.0 mph - N/A   Scattered Clouds
1:35 PM 48.2 °F - 33.8 °F 58% 30.15 in 10.0 mi SSW 12.7 mph 19.6 mph N/A   Mostly Cloudy
1:55 PM 50.0 °F - 33.8 °F 54% 30.15 in 10.0 mi SW 12.7 mph 20.7 mph N/A   Mostly Cloudy
2:15 PM 48.2 °F - 33.8 °F 58% 30.15 in 10.0 mi SSW 12.7 mph 21.9 mph N/A   Mostly Cloudy
2:35 PM 50.0 °F - 33.8 °F 54% 30.16 in 10.0 mi SW 15.0 mph 20.7 mph N/A   Mostly Cloudy
2:55 PM 48.2 °F - 33.8 °F 58% 30.16 in 10.0 mi SW 12.7 mph - N/A   Mostly Cloudy
3:15 PM 50.0 °F - 33.8 °F 54% 30.15 in 10.0 mi SSW 11.5 mph - N/A   Mostly Cloudy
3:35 PM 48.2 °F - 32.0 °F 54% 30.15 in 10.0 mi SW 13.8 mph 21.9 mph N/A   Mostly Cloudy
3:55 PM 48.2 °F - 33.8 °F 58% 30.15 in 10.0 mi SSW 11.5 mph 18.4 mph N/A   Mostly Cloudy
4:15 PM 48.2 °F - 33.8 °F 58% 30.15 in 10.0 mi SW 9.2 mph - N/A   Mostly Cloudy
4:35 PM 48.2 °F - 32.0 °F 54% 30.15 in 10.0 mi SSW 12.7 mph - N/A   Mostly Cloudy
4:55 PM 46.4 °F 41.5 °F 32.0 °F 57% 30.16 in 10.0 mi SSW 10.4 mph - N/A   Scattered Clouds
5:15 PM 46.4 °F 41.9 °F 32.0 °F 57% 30.16 in 10.0 mi SSW 9.2 mph - N/A   Mostly Cloudy
5:35 PM 46.4 °F 41.5 °F 32.0 °F 57% 30.16 in 10.0 mi SW 10.4 mph - N/A   Overcast
5:55 PM 46.4 °F 41.5 °F 32.0 °F 57% 30.16 in 10.0 mi SW 10.4 mph - N/A   Scattered Clouds
6:15 PM 46.4 °F 41.9 °F 32.0 °F 57% 30.16 in 10.0 mi SSW 9.2 mph - N/A   Scattered Clouds
6:35 PM 44.6 °F 40.7 °F 32.0 °F 61% 30.17 in 10.0 mi SSW 6.9 mph - N/A   Mostly Cloudy
6:55 PM 44.6 °F 40.7 °F 32.0 °F 61% 30.15 in 10.0 mi South 6.9 mph - N/A   Scattered Clouds
7:15 PM 44.6 °F 40.2 °F 32.0 °F 61% 30.15 in 10.0 mi South 8.1 mph - N/A   Scattered Clouds
7:35 PM 44.6 °F 39.7 °F 32.0 °F 61% 30.15 in 10.0 mi South 9.2 mph - N/A   Partly Cloudy
7:55 PM 44.6 °F 39.2 °F 32.0 °F 61% 30.14 in 10.0 mi SE 10.4 mph - N/A   Mostly Cloudy
8:15 PM 44.6 °F 39.2 °F 32.0 °F 61% 30.14 in 10.0 mi SSE 10.4 mph - N/A   Mostly Cloudy
8:35 PM 44.6 °F 39.2 °F 32.0 °F 61% 30.14 in 10.0 mi SSE 10.4 mph 18.4 mph N/A   Mostly Cloudy
8:55 PM 44.6 °F 39.2 °F 32.0 °F 61% 30.14 in 10.0 mi SSE 10.4 mph - N/A   Scattered Clouds
9:15 PM 44.6 °F 39.7 °F 32.0 °F 61% 30.14 in 10.0 mi SSE 9.2 mph 16.1 mph N/A   Mostly Cloudy
9:35 PM 44.6 °F 39.2 °F 32.0 °F 61% 30.14 in 10.0 mi SSE 10.4 mph - N/A   Overcast
9:55 PM 44.6 °F 39.7 °F 32.0 °F 61% 30.13 in 10.0 mi SSE 9.2 mph - N/A   Mostly Cloudy
10:15 PM 44.6 °F 38.8 °F 32.0 °F 61% 30.13 in 10.0 mi SSE 11.5 mph 16.1 mph N/A   Overcast
10:35 PM 44.6 °F 39.2 °F 32.0 °F 61% 30.12 in 10.0 mi South 10.4 mph 17.3 mph N/A   Overcast
10:55 PM 44.6 °F 37.8 °F 32.0 °F 61% 30.11 in 10.0 mi South 15.0 mph 19.6 mph N/A   Overcast
11:15 PM 44.6 °F 38.8 °F 32.0 °F 61% 30.09 in 9.0 mi South 11.5 mph 20.7 mph N/A   Mostly Cloudy
11:35 PM 44.6 °F 38.4 °F 33.8 °F 66% 30.09 in 10.0 mi South 12.7 mph 26.5 mph N/A   Overcast
11:55 PM 44.6 °F 36.9 °F 32.0 °F 61% 30.08 in 10.0 mi South 18.4 mph 26.5 mph N/A   Overcast